Tracking 29892 objects as of 21-Nov-2024
HD Live streaming from Space Station
objects crossing your sky now

ICEYE-X31

Track ICEYE-X31 now!
10-day predictions


NORAD ID: 58288
Int'l Code: 2023-174AJ
Perigee: 523.6 km
Apogee: 527.4 km
Inclination: 97.4 °
Period: 95.0 minutes
Semi major axis: 6896 km
RCS: Unknown
Launch date: November 11, 2023
Source: (FIN)
Launch site: AIR FORCE WESTERN TEST RANGE (AFWTR)
Your satellite tracking list
Your tracking list is empty




NASA's NSSDC Master Catalog

Two Line Element Set (TLE):
1 58288U 23174AJ  24326.18622036  .00015261  00000-0  80014-3 0  9994
2 58288  97.4416  37.3394 0002773 170.7905 189.3379 15.15857072 57453
Source of the keplerian elements: AFSPC